User: anonymous   Login
Location: Unspecified
(50.0959°N, 14.3921°E)
Time: 02:42:06
(UTC+01:00)
Language:

SWIFT - Orbit

View from above orbital plane
View from above orbital plane
View from above satellite
View from above satellite

Ground track
Ground track

The orbit data is extracted from the following two-line orbital elements,

1 28485U 04047A   19045.77374703  .00000770  00000-0  22329-4 0  9995
2 28485  20.5557 205.0559 0011270 357.6698   2.3683 15.04300118779800
Epoch (UTC): 14 February 2019 18:34:11
Eccentricity: 0.0011270
inclination: 20.5557°
perigee height: 546 km
apogee height: 561 km
right ascension of ascending node: 205.0559°
argument of perigee: 357.6698°
revolutions per day: 15.04300118
mean anomaly at epoch: 2.3683°
orbit number at epoch: 77980

The dashed part of the orbit path shows where the satellite is in the earth's shadow,  

DLR